Time,TemperatureF,DewpointF,PressureIn,WindDirection,WindDirectionDegrees,WindSpeedMPH,WindSpeedGustMPH,Humidity,HourlyPrecipIn,Conditions,Clouds,dailyrainin,SoftwareType,DateUTC
2013-01-16 00:02:00,37.0,22.4,25.51,North,0,0.0,0.0,55,0.00,,---,0.00,VWS V13.01,2013-01-16 07:02:00,
2013-01-16 00:07:00,37.2,22.1,25.51,North,0,0.0,0.0,54,0.00,,---,0.00,VWS V13.01,2013-01-16 07:07:00,
2013-01-16 00:12:00,36.5,22.3,25.51,North,0,0.0,0.0,56,0.00,,---,0.00,VWS V13.01,2013-01-16 07:12:00,
2013-01-16 00:17:00,36.5,22.3,25.51,North,0,0.0,0.0,56,0.00,,---,0.00,VWS V13.01,2013-01-16 07:17:00,
2013-01-16 00:22:00,36.1,22.4,25.51,North,0,0.0,0.0,57,0.00,,---,0.00,VWS V13.01,2013-01-16 07:22:00,
2013-01-16 00:27:00,36.0,22.2,25.51,North,0,0.0,0.0,57,0.00,,---,0.00,VWS V13.01,2013-01-16 07:27:00,
2013-01-16 00:32:00,36.1,22.4,25.51,North,0,0.0,0.0,57,0.00,,---,0.00,VWS V13.01,2013-01-16 07:32:00,
2013-01-16 00:37:00,36.0,22.2,25.51,North,0,0.0,0.0,57,0.00,,---,0.00,VWS V13.01,2013-01-16 07:37:00,
2013-01-16 00:42:00,36.1,22.4,25.51,North,0,0.0,0.0,57,0.00,,---,0.00,VWS V13.01,2013-01-16 07:42:00,
2013-01-16 00:47:00,36.1,22.4,25.51,North,0,0.0,0.0,57,0.00,,---,0.00,VWS V13.01,2013-01-16 07:47:00,
2013-01-16 00:52:00,36.1,22.8,25.51,North,0,0.0,0.0,58,0.00,,---,0.00,VWS V13.01,2013-01-16 07:52:00,
2013-01-16 00:57:00,35.8,22.5,25.51,North,0,0.0,0.0,58,0.00,,---,0.00,VWS V13.01,2013-01-16 07:57:00,
2013-01-16 01:02:00,35.6,22.7,25.51,North,0,0.0,0.0,59,0.00,,---,0.00,VWS V13.01,2013-01-16 08:02:00,
2013-01-16 01:07:00,35.6,23.1,25.51,North,0,0.0,0.0,60,0.00,,---,0.00,VWS V13.01,2013-01-16 08:07:00,
2013-01-16 01:12:00,35.4,22.9,25.51,North,0,0.0,0.0,60,0.00,,---,0.00,VWS V13.01,2013-01-16 08:12:00,
2013-01-16 01:17:00,35.4,22.9,25.51,North,0,0.0,0.0,60,0.00,,---,0.00,VWS V13.01,2013-01-16 08:17:00,
2013-01-16 01:22:00,35.6,23.1,25.54,North,0,0.0,0.0,60,0.00,,---,0.00,VWS V13.01,2013-01-16 08:22:00,
2013-01-16 01:27:00,35.6,23.1,25.54,North,0,0.0,0.0,60,0.00,,---,0.00,VWS V13.01,2013-01-16 08:27:00,
2013-01-16 01:32:00,35.8,23.3,25.54,North,0,0.0,0.0,60,0.00,,---,0.00,VWS V13.01,2013-01-16 08:32:00,
2013-01-16 01:37:00,36.1,22.8,25.54,North,0,0.0,0.0,58,0.00,,---,0.00,VWS V13.01,2013-01-16 08:37:00,
2013-01-16 01:42:00,36.7,22.5,25.54,North,0,0.0,0.0,56,0.00,,---,0.00,VWS V13.01,2013-01-16 08:42:00,
2013-01-16 01:47:00,36.7,22.5,25.54,North,0,0.0,0.0,56,0.00,,---,0.00,VWS V13.01,2013-01-16 08:47:00,
2013-01-16 01:52:00,37.4,20.9,25.54,North,0,0.0,0.0,51,0.00,,---,0.00,VWS V13.01,2013-01-16 08:52:00,
2013-01-16 01:57:00,36.9,20.9,25.54,North,0,0.0,0.0,52,0.00,,---,0.00,VWS V13.01,2013-01-16 08:57:00,
2013-01-16 02:02:00,36.5,20.6,25.54,North,0,0.0,0.0,52,0.00,,---,0.00,VWS V13.01,2013-01-16 09:02:00,
2013-01-16 02:07:00,36.1,20.7,25.54,North,0,0.0,0.0,53,0.00,,---,0.00,VWS V13.01,2013-01-16 09:07:00,
2013-01-16 02:12:00,36.0,20.5,25.54,North,0,0.0,0.0,53,0.00,,---,0.00,VWS V13.01,2013-01-16 09:12:00,
2013-01-16 02:17:00,36.0,20.1,25.54,North,0,0.0,0.0,52,0.00,,---,0.00,VWS V13.01,2013-01-16 09:17:00,
2013-01-16 02:22:00,35.8,19.9,25.54,North,0,0.0,0.0,52,0.00,,---,0.00,VWS V13.01,2013-01-16 09:22:00,
2013-01-16 02:27:00,35.8,19.9,25.54,North,0,0.0,0.0,52,0.00,,---,0.00,VWS V13.01,2013-01-16 09:27:00,
2013-01-16 02:32:00,35.8,19.4,25.54,North,0,0.0,0.0,51,0.00,,---,0.00,VWS V13.01,2013-01-16 09:32:00,
2013-01-16 02:37:00,35.8,19.0,25.54,North,0,0.0,0.0,50,0.00,,---,0.00,VWS V13.01,2013-01-16 09:37:00,
2013-01-16 02:42:00,35.4,18.6,25.54,North,0,0.0,0.0,50,0.00,,---,0.00,VWS V13.01,2013-01-16 09:42:00,
2013-01-16 02:47:00,35.4,18.6,25.54,North,0,0.0,0.0,50,0.00,,---,0.00,VWS V13.01,2013-01-16 09:47:00,
2013-01-16 02:52:00,35.1,18.3,25.54,North,0,0.0,0.0,50,0.00,,---,0.00,VWS V13.01,2013-01-16 09:52:00,
2013-01-16 02:57:00,35.4,18.2,25.54,North,0,0.0,0.0,49,0.00,,---,0.00,VWS V13.01,2013-01-16 09:57:00,
2013-01-16 03:02:00,35.8,17.5,25.54,North,0,0.0,0.0,47,0.00,,---,0.00,VWS V13.01,2013-01-16 10:02:00,
2013-01-16 03:07:00,35.8,17.0,25.54,North,0,0.0,0.0,46,0.00,,---,0.00,VWS V13.01,2013-01-16 10:07:00,
2013-01-16 03:12:00,35.8,16.5,25.54,North,0,0.0,0.0,45,0.00,,---,0.00,VWS V13.01,2013-01-16 10:12:00,
2013-01-16 03:17:00,35.8,16.5,25.54,North,0,0.0,0.0,45,0.00,,---,0.00,VWS V13.01,2013-01-16 10:17:00,
2013-01-16 03:22:00,35.8,16.5,25.54,North,0,0.0,0.0,45,0.00,,---,0.00,VWS V13.01,2013-01-16 10:22:00,
2013-01-16 03:27:00,35.6,15.9,25.54,North,0,0.0,0.0,44,0.00,,---,0.00,VWS V13.01,2013-01-16 10:27:00,
2013-01-16 03:32:00,36.0,16.2,25.54,North,0,0.0,0.0,44,0.00,,---,0.00,VWS V13.01,2013-01-16 10:32:00,
2013-01-16 03:37:00,36.1,15.8,25.54,North,0,0.0,0.0,43,0.00,,---,0.00,VWS V13.01,2013-01-16 10:37:00,
2013-01-16 03:42:00,36.1,15.8,25.54,North,0,0.0,0.0,43,0.00,,---,0.00,VWS V13.01,2013-01-16 10:42:00,
2013-01-16 03:47:00,36.5,16.1,25.54,North,0,0.0,0.0,43,0.00,,---,0.00,VWS V13.01,2013-01-16 10:47:00,
2013-01-16 03:52:00,36.7,16.3,25.54,North,0,0.0,0.0,43,0.00,,---,0.00,VWS V13.01,2013-01-16 10:52:00,
2013-01-16 03:57:00,36.7,15.8,25.54,North,0,0.0,0.0,42,0.00,,---,0.00,VWS V13.01,2013-01-16 10:57:00,
2013-01-16 04:02:00,36.5,15.6,25.54,North,0,0.0,0.0,42,0.00,,---,0.00,VWS V13.01,2013-01-16 11:02:00,
2013-01-16 04:07:00,36.5,15.6,25.54,North,0,0.0,0.0,42,0.00,,---,0.00,VWS V13.01,2013-01-16 11:07:00,
2013-01-16 04:12:00,36.7,15.8,25.54,North,0,0.0,0.0,42,0.00,,---,0.00,VWS V13.01,2013-01-16 11:12:00,
2013-01-16 04:17:00,36.3,15.4,25.54,North,0,0.0,0.0,42,0.00,,---,0.00,VWS V13.01,2013-01-16 11:17:00,
2013-01-16 04:22:00,36.1,15.3,25.54,North,0,0.0,0.0,42,0.00,,---,0.00,VWS V13.01,2013-01-16 11:22:00,
2013-01-16 04:27:00,36.1,15.3,25.54,North,0,0.0,0.0,42,0.00,,---,0.00,VWS V13.01,2013-01-16 11:27:00,
2013-01-16 04:32:00,36.3,15.4,25.54,North,0,0.0,0.0,42,0.00,,---,0.00,VWS V13.01,2013-01-16 11:32:00,
2013-01-16 04:37:00,36.5,15.6,25.54,North,0,0.0,0.0,42,0.00,,---,0.00,VWS V13.01,2013-01-16 11:37:00,
2013-01-16 04:42:00,36.9,15.4,25.54,North,0,0.0,0.0,41,0.00,,---,0.00,VWS V13.01,2013-01-16 11:42:00,
2013-01-16 04:47:00,36.9,15.4,25.54,North,0,0.0,0.0,41,0.00,,---,0.00,VWS V13.01,2013-01-16 11:47:00,
2013-01-16 04:52:00,37.2,15.7,25.54,North,0,0.0,0.0,41,0.00,,---,0.00,VWS V13.01,2013-01-16 11:52:00,
2013-01-16 04:57:00,37.9,15.8,25.54,North,0,0.0,0.0,40,0.00,,---,0.00,VWS V13.01,2013-01-16 11:57:00,
2013-01-16 05:02:00,38.1,15.9,25.54,North,0,0.0,0.0,40,0.00,,---,0.00,VWS V13.01,2013-01-16 12:02:00,
2013-01-16 05:07:00,38.3,16.1,25.54,North,0,0.0,0.0,40,0.00,,---,0.00,VWS V13.01,2013-01-16 12:07:00,
2013-01-16 05:12:00,38.1,15.9,25.54,North,0,0.0,0.0,40,0.00,,---,0.00,VWS V13.01,2013-01-16 12:12:00,
2013-01-16 05:17:00,38.1,15.9,25.54,North,0,0.0,0.0,40,0.00,,---,0.00,VWS V13.01,2013-01-16 12:17:00,
2013-01-16 05:22:00,38.1,15.9,25.54,North,0,0.0,0.0,40,0.00,,---,0.00,VWS V13.01,2013-01-16 12:22:00,
2013-01-16 05:27:00,38.3,16.1,25.54,North,0,0.0,0.0,40,0.00,,---,0.00,VWS V13.01,2013-01-16 12:27:00,
2013-01-16 05:32:00,37.8,15.6,25.54,North,0,0.0,0.0,40,0.00,,---,0.00,VWS V13.01,2013-01-16 12:32:00,
2013-01-16 05:37:00,37.2,15.7,25.54,North,0,0.0,0.0,41,0.00,,---,0.00,VWS V13.01,2013-01-16 12:37:00,
2013-01-16 05:42:00,37.4,15.3,25.54,North,0,0.0,0.0,40,0.00,,---,0.00,VWS V13.01,2013-01-16 12:42:00,
2013-01-16 05:47:00,37.6,15.5,25.54,North,0,0.0,0.0,40,0.00,,---,0.00,VWS V13.01,2013-01-16 12:47:00,
2013-01-16 05:52:00,37.6,15.5,25.54,North,0,0.0,0.0,40,0.00,,---,0.00,VWS V13.01,2013-01-16 12:52:00,
2013-01-16 05:57:00,37.6,15.5,25.54,North,0,0.0,0.0,40,0.00,,---,0.00,VWS V13.01,2013-01-16 12:57:00,
2013-01-16 06:02:00,37.8,15.6,25.54,North,0,0.0,0.0,40,0.00,,---,0.00,VWS V13.01,2013-01-16 13:02:00,
2013-01-16 06:07:00,37.4,15.3,25.54,North,0,0.0,0.0,40,0.00,,---,0.00,VWS V13.01,2013-01-16 13:07:00,
2013-01-16 06:12:00,37.0,15.0,25.54,North,0,0.0,0.0,40,0.00,,---,0.00,VWS V13.01,2013-01-16 13:12:00,
2013-01-16 06:17:00,37.0,15.0,25.54,North,0,0.0,0.0,40,0.00,,---,0.00,VWS V13.01,2013-01-16 13:17:00,
2013-01-16 06:22:00,36.7,14.6,25.54,North,0,0.0,0.0,40,0.00,,---,0.00,VWS V13.01,2013-01-16 13:22:00,
2013-01-16 06:27:00,36.7,15.2,25.54,North,0,0.0,0.0,41,0.00,,---,0.00,VWS V13.01,2013-01-16 13:27:00,
2013-01-16 06:32:00,36.9,14.8,25.54,North,0,0.0,0.0,40,0.00,,---,0.00,VWS V13.01,2013-01-16 13:32:00,
2013-01-16 06:37:00,36.9,14.8,25.57,North,0,0.0,0.0,40,0.00,,---,0.00,VWS V13.01,2013-01-16 13:37:00,
2013-01-16 06:42:00,36.9,15.4,25.57,North,0,0.0,0.0,41,0.00,,---,0.00,VWS V13.01,2013-01-16 13:42:00,
2013-01-16 06:47:00,36.9,14.8,25.57,North,0,0.0,0.0,40,0.00,,---,0.00,VWS V13.01,2013-01-16 13:47:00,
2013-01-16 06:52:00,36.9,14.8,25.57,North,0,0.0,0.0,40,0.00,,---,0.00,VWS V13.01,2013-01-16 13:52:00,
2013-01-16 06:57:00,36.9,14.8,25.57,North,0,0.0,0.0,40,0.00,,---,0.00,VWS V13.01,2013-01-16 13:57:00,
2013-01-16 07:02:00,36.7,14.6,25.57,North,0,0.0,0.0,40,0.00,,---,0.00,VWS V13.01,2013-01-16 14:02:00,
2013-01-16 07:07:00,36.9,14.8,25.57,North,0,0.0,0.0,40,0.00,,---,0.00,VWS V13.01,2013-01-16 14:07:00,
2013-01-16 07:12:00,37.0,15.0,25.57,North,0,0.0,0.0,40,0.00,,---,0.00,VWS V13.01,2013-01-16 14:12:00,
2013-01-16 07:17:00,36.9,14.8,25.57,North,0,0.0,0.0,40,0.00,,---,0.00,VWS V13.01,2013-01-16 14:17:00,
2013-01-16 07:22:00,36.7,14.6,25.57,North,0,0.0,0.0,40,0.00,,---,0.00,VWS V13.01,2013-01-16 14:22:00,
2013-01-16 07:27:00,37.4,15.3,25.57,North,0,0.0,0.0,40,0.00,,---,0.00,VWS V13.01,2013-01-16 14:27:00,
2013-01-16 07:32:00,36.9,14.8,25.57,North,0,0.0,0.0,40,0.00,,---,0.00,VWS V13.01,2013-01-16 14:32:00,
2013-01-16 07:37:00,36.9,14.8,25.57,North,0,0.0,0.0,40,0.00,,---,0.00,VWS V13.01,2013-01-16 14:37:00,
2013-01-16 07:42:00,36.9,14.8,25.57,North,0,0.0,0.0,40,0.00,,---,0.00,VWS V13.01,2013-01-16 14:42:00,
2013-01-16 07:47:00,37.2,15.1,25.57,North,0,0.0,0.0,40,0.00,,---,0.00,VWS V13.01,2013-01-16 14:47:00,
2013-01-16 07:52:00,37.2,15.1,25.57,North,0,0.0,0.0,40,0.00,,---,0.00,VWS V13.01,2013-01-16 14:52:00,
2013-01-16 07:57:00,37.2,15.1,25.57,North,0,0.0,0.0,40,0.00,,---,0.00,VWS V13.01,2013-01-16 14:57:00,
2013-01-16 08:02:00,37.2,15.1,25.57,North,0,0.0,0.0,40,0.00,,---,0.00,VWS V13.01,2013-01-16 15:02:00,
2013-01-16 08:07:00,37.2,15.1,25.60,North,0,0.0,0.0,40,0.00,,---,0.00,VWS V13.01,2013-01-16 15:07:00,
2013-01-16 08:12:00,37.4,14.7,25.60,North,0,0.0,0.0,39,0.00,,---,0.00,VWS V13.01,2013-01-16 15:12:00,
2013-01-16 08:17:00,37.8,15.0,25.60,North,0,0.0,0.0,39,0.00,,---,0.00,VWS V13.01,2013-01-16 15:17:00,
2013-01-16 08:22:00,37.9,15.2,25.60,North,0,0.0,0.0,39,0.00,,---,0.00,VWS V13.01,2013-01-16 15:22:00,
2013-01-16 08:27:00,38.7,15.9,25.60,North,0,0.0,0.0,39,0.00,,---,0.00,VWS V13.01,2013-01-16 15:27:00,
2013-01-16 08:32:00,39.4,15.9,25.60,North,0,0.0,0.0,38,0.00,,---,0.00,VWS V13.01,2013-01-16 15:32:00,
2013-01-16 08:37:00,39.2,15.7,25.60,North,0,0.0,0.0,38,0.00,,---,0.00,VWS V13.01,2013-01-16 15:37:00,
2013-01-16 08:42:00,38.8,16.0,25.60,North,0,0.0,0.0,39,0.00,,---,0.00,VWS V13.01,2013-01-16 15:42:00,
2013-01-16 08:47:00,38.8,16.0,25.60,North,0,0.0,0.0,39,0.00,,---,0.00,VWS V13.01,2013-01-16 15:47:00,
2013-01-16 08:52:00,38.8,16.0,25.60,North,0,0.0,0.0,39,0.00,,---,0.00,VWS V13.01,2013-01-16 15:52:00,
2013-01-16 08:57:00,39.7,16.2,25.60,North,0,0.0,0.0,38,0.00,,---,0.00,VWS V13.01,2013-01-16 15:57:00,
2013-01-16 09:02:00,40.3,16.1,25.60,North,0,0.0,0.0,37,0.00,,---,0.00,VWS V13.01,2013-01-16 16:02:00,
2013-01-16 09:07:00,40.1,15.9,25.60,North,0,0.0,0.0,37,0.00,,---,0.00,VWS V13.01,2013-01-16 16:07:00,
2013-01-16 09:12:00,41.2,16.3,25.60,North,0,0.0,0.0,36,0.00,,---,0.00,VWS V13.01,2013-01-16 16:12:00,
2013-01-16 09:17:00,41.9,16.3,25.60,North,0,0.0,0.0,35,0.00,,---,0.00,VWS V13.01,2013-01-16 16:17:00,
2013-01-16 09:22:00,42.1,16.4,25.63,North,0,0.0,0.0,35,0.00,,---,0.00,VWS V13.01,2013-01-16 16:22:00,
2013-01-16 09:27:00,42.4,16.1,25.63,North,0,0.0,0.0,34,0.00,,---,0.00,VWS V13.01,2013-01-16 16:27:00,
2013-01-16 09:32:00,42.6,16.2,25.63,North,0,0.0,0.0,34,0.00,,---,0.00,VWS V13.01,2013-01-16 16:32:00,
2013-01-16 09:37:00,42.6,16.2,25.63,North,0,0.0,0.0,34,0.00,,---,0.00,VWS V13.01,2013-01-16 16:37:00,
2013-01-16 09:42:00,43.3,16.2,25.63,North,0,0.0,0.0,33,0.00,,---,0.00,VWS V13.01,2013-01-16 16:42:00,
2013-01-16 09:47:00,43.3,16.2,25.63,North,0,0.0,0.0,33,0.00,,---,0.00,VWS V13.01,2013-01-16 16:47:00,
2013-01-16 09:52:00,43.3,16.2,25.63,North,0,0.0,0.0,33,0.00,,---,0.00,VWS V13.01,2013-01-16 16:52:00,
2013-01-16 09:57:00,43.3,16.2,25.63,North,0,0.0,0.0,33,0.00,,---,0.00,VWS V13.01,2013-01-16 16:57:00,
2013-01-16 10:02:00,43.3,16.2,25.63,North,0,0.0,0.0,33,0.00,,---,0.00,VWS V13.01,2013-01-16 17:02:00,
2013-01-16 10:07:00,43.3,15.5,25.63,North,0,0.0,0.0,32,0.00,,---,0.00,VWS V13.01,2013-01-16 17:07:00,
2013-01-16 10:12:00,44.1,16.1,25.63,North,0,0.0,0.0,32,0.00,,---,0.00,VWS V13.01,2013-01-16 17:12:00,
2013-01-16 10:17:00,44.8,16.7,25.63,North,0,0.0,0.0,32,0.00,,---,0.00,VWS V13.01,2013-01-16 17:17:00,
2013-01-16 10:22:00,45.3,17.2,25.63,North,0,0.0,0.0,32,0.00,,---,0.00,VWS V13.01,2013-01-16 17:22:00,
2013-01-16 10:27:00,45.7,16.8,25.63,North,0,0.0,0.0,31,0.00,,---,0.00,VWS V13.01,2013-01-16 17:27:00,
2013-01-16 10:32:00,44.8,16.0,25.63,North,0,0.0,0.0,31,0.00,,---,0.00,VWS V13.01,2013-01-16 17:32:00,
2013-01-16 10:37:00,44.6,16.6,25.63,North,0,0.0,0.0,32,0.00,,---,0.00,VWS V13.01,2013-01-16 17:37:00,
2013-01-16 10:42:00,43.9,15.9,25.63,North,0,0.0,0.0,32,0.00,,---,0.00,VWS V13.01,2013-01-16 17:42:00,
2013-01-16 10:47:00,43.9,15.9,25.63,North,0,0.0,0.0,32,0.00,,---,0.00,VWS V13.01,2013-01-16 17:47:00,
2013-01-16 10:52:00,44.1,16.1,25.63,North,0,0.0,0.0,32,0.00,,---,0.00,VWS V13.01,2013-01-16 17:52:00,
2013-01-16 10:57:00,43.9,15.9,25.63,North,0,0.0,0.0,32,0.00,,---,0.00,VWS V13.01,2013-01-16 17:57:00,
2013-01-16 11:02:00,43.9,15.9,25.63,North,0,0.0,0.0,32,0.00,,---,0.00,VWS V13.01,2013-01-16 18:02:00,
2013-01-16 11:07:00,43.5,15.6,25.63,North,0,0.0,0.0,32,0.00,,---,0.00,VWS V13.01,2013-01-16 18:07:00,
2013-01-16 11:12:00,43.9,15.9,25.63,North,0,0.0,0.0,32,0.00,,---,0.00,VWS V13.01,2013-01-16 18:12:00,
2013-01-16 11:17:00,44.1,16.1,25.63,North,0,0.0,0.0,32,0.00,,---,0.00,VWS V13.01,2013-01-16 18:17:00,
2013-01-16 11:22:00,44.1,16.1,25.66,North,0,0.0,0.0,32,0.00,,---,0.00,VWS V13.01,2013-01-16 18:22:00,
2013-01-16 11:27:00,43.5,15.6,25.66,North,0,0.0,0.0,32,0.00,,---,0.00,VWS V13.01,2013-01-16 18:27:00,
2013-01-16 11:32:00,43.7,15.8,25.66,North,0,0.0,0.0,32,0.00,,---,0.00,VWS V13.01,2013-01-16 18:32:00,
2013-01-16 11:37:00,43.7,15.8,25.66,North,0,0.0,0.0,32,0.00,,---,0.00,VWS V13.01,2013-01-16 18:37:00,
2013-01-16 11:42:00,43.7,15.8,25.66,North,0,0.0,0.0,32,0.00,,---,0.00,VWS V13.01,2013-01-16 18:42:00,
2013-01-16 11:47:00,43.7,15.8,25.66,North,0,0.0,0.0,32,0.00,,---,0.00,VWS V13.01,2013-01-16 18:47:00,
2013-01-16 11:52:00,43.2,15.3,25.66,North,0,0.0,0.0,32,0.00,,---,0.00,VWS V13.01,2013-01-16 18:52:00,
2013-01-16 11:57:00,43.2,15.3,25.66,North,0,0.0,0.0,32,0.00,,---,0.00,VWS V13.01,2013-01-16 18:57:00,
2013-01-16 12:02:00,43.3,15.5,25.66,North,0,0.0,0.0,32,0.00,,---,0.00,VWS V13.01,2013-01-16 19:02:00,
2013-01-16 12:07:00,43.5,15.6,25.66,North,0,0.0,0.0,32,0.00,,---,0.00,VWS V13.01,2013-01-16 19:07:00,
2013-01-16 12:12:00,43.7,15.8,25.66,North,0,0.0,0.0,32,0.00,,---,0.00,VWS V13.01,2013-01-16 19:12:00,
2013-01-16 12:17:00,43.7,15.8,25.66,North,0,0.0,0.0,32,0.00,,---,0.00,VWS V13.01,2013-01-16 19:17:00,
2013-01-16 12:22:00,43.7,15.8,25.66,North,0,0.0,0.0,32,0.00,,---,0.00,VWS V13.01,2013-01-16 19:22:00,
2013-01-16 12:27:00,43.9,15.9,25.66,North,0,0.0,0.0,32,0.00,,---,0.00,VWS V13.01,2013-01-16 19:27:00,
2013-01-16 12:32:00,43.9,15.9,25.66,North,0,0.0,0.0,32,0.00,,---,0.00,VWS V13.01,2013-01-16 19:32:00,
2013-01-16 12:37:00,43.9,15.9,25.66,North,0,0.0,0.0,32,0.00,,---,0.00,VWS V13.01,2013-01-16 19:37:00,
2013-01-16 12:42:00,44.2,16.3,25.66,North,0,0.0,0.0,32,0.00,,---,0.00,VWS V13.01,2013-01-16 19:42:00,
2013-01-16 12:47:00,44.6,16.6,25.66,North,0,0.0,0.0,32,0.00,,---,0.00,VWS V13.01,2013-01-16 19:47:00,
2013-01-16 12:52:00,44.2,16.3,25.66,North,0,0.0,0.0,32,0.00,,---,0.00,VWS V13.01,2013-01-16 19:52:00,
2013-01-16 12:57:00,44.1,16.1,25.66,North,0,0.0,0.0,32,0.00,,---,0.00,VWS V13.01,2013-01-16 19:57:00,
2013-01-16 13:02:00,43.7,15.8,25.66,North,0,0.0,0.0,32,0.00,,---,0.00,VWS V13.01,2013-01-16 20:02:00,
2013-01-16 13:07:00,44.1,16.1,25.66,North,0,0.0,0.0,32,0.00,,---,0.00,VWS V13.01,2013-01-16 20:07:00,
2013-01-16 13:12:00,44.2,16.3,25.66,North,0,0.0,0.0,32,0.00,,---,0.00,VWS V13.01,2013-01-16 20:12:00,
2013-01-16 13:16:00,44.4,16.4,25.66,North,0,0.0,0.0,32,0.00,,---,0.00,VWS V13.01,2013-01-16 20:16:00,
2013-01-16 13:21:00,44.6,16.6,25.66,North,0,0.0,0.0,32,0.00,,---,0.00,VWS V13.01,2013-01-16 20:21:00,
2013-01-16 13:26:00,44.6,16.6,25.66,North,0,0.0,0.0,32,0.00,,---,0.00,VWS V13.01,2013-01-16 20:26:00,
2013-01-16 13:31:00,44.6,16.6,25.66,North,0,0.0,0.0,32,0.00,,---,0.00,VWS V13.01,2013-01-16 20:31:00,
2013-01-16 13:36:00,44.2,16.3,25.66,North,0,0.0,0.0,32,0.00,,---,0.00,VWS V13.01,2013-01-16 20:36:00,
2013-01-16 13:41:00,43.7,16.5,25.66,North,0,0.0,0.0,33,0.00,,---,0.00,VWS V13.01,2013-01-16 20:41:00,
2013-01-16 13:46:00,43.5,15.6,25.66,North,0,0.0,0.0,32,0.00,,---,0.00,VWS V13.01,2013-01-16 20:46:00,
2013-01-16 13:51:00,44.1,16.8,25.69,North,0,0.0,0.0,33,0.00,,---,0.00,VWS V13.01,2013-01-16 20:51:00,
2013-01-16 13:56:00,44.8,16.7,25.69,North,0,0.0,0.0,32,0.00,,---,0.00,VWS V13.01,2013-01-16 20:56:00,
2013-01-16 14:01:00,45.1,17.1,25.69,North,0,0.0,0.0,32,0.00,,---,0.00,VWS V13.01,2013-01-16 21:01:00,
2013-01-16 14:06:00,45.3,17.2,25.69,North,0,0.0,0.0,32,0.00,,---,0.00,VWS V13.01,2013-01-16 21:06:00,
2013-01-16 14:11:00,45.5,17.4,25.69,North,0,0.0,0.0,32,0.00,,---,0.00,VWS V13.01,2013-01-16 21:11:00,
2013-01-16 14:16:00,45.1,17.1,25.69,North,0,0.0,0.0,32,0.00,,---,0.00,VWS V13.01,2013-01-16 21:16:00,
2013-01-16 14:21:00,44.8,16.7,25.69,North,0,0.0,0.0,32,0.00,,---,0.00,VWS V13.01,2013-01-16 21:21:00,
2013-01-16 14:26:00,44.8,16.7,25.69,North,0,0.0,0.0,32,0.00,,---,0.00,VWS V13.01,2013-01-16 21:26:00,
2013-01-16 14:31:00,44.8,16.7,25.69,North,0,0.0,0.0,32,0.00,,---,0.00,VWS V13.01,2013-01-16 21:31:00,
2013-01-16 14:36:00,44.8,16.7,25.69,North,0,0.0,0.0,32,0.00,,---,0.00,VWS V13.01,2013-01-16 21:36:00,
2013-01-16 14:41:00,44.2,17.0,25.69,North,0,0.0,0.0,33,0.00,,---,0.00,VWS V13.01,2013-01-16 21:41:00,
2013-01-16 14:46:00,43.7,16.5,25.69,North,0,0.0,0.0,33,0.00,,---,0.00,VWS V13.01,2013-01-16 21:46:00,
2013-01-16 14:51:00,43.5,16.3,25.69,North,0,0.0,0.0,33,0.00,,---,0.00,VWS V13.01,2013-01-16 21:51:00,
2013-01-16 14:56:00,43.3,16.2,25.69,North,0,0.0,0.0,33,0.00,,---,0.00,VWS V13.01,2013-01-16 21:56:00,
2013-01-16 15:01:00,42.8,15.7,25.69,North,0,0.0,0.0,33,0.00,,---,0.00,VWS V13.01,2013-01-16 22:01:00,
2013-01-16 15:06:00,42.4,15.4,25.69,North,0,0.0,0.0,33,0.00,,---,0.00,VWS V13.01,2013-01-16 22:06:00,
2013-01-16 15:11:00,42.3,15.2,25.69,North,0,0.0,0.0,33,0.00,,---,0.00,VWS V13.01,2013-01-16 22:11:00,
2013-01-16 15:16:00,42.3,15.9,25.69,North,0,0.0,0.0,34,0.00,,---,0.00,VWS V13.01,2013-01-16 22:16:00,
2013-01-16 15:21:00,41.9,15.6,25.72,North,0,0.0,0.0,34,0.00,,---,0.00,VWS V13.01,2013-01-16 22:21:00,
2013-01-16 15:26:00,41.7,15.4,25.72,North,0,0.0,0.0,34,0.00,,---,0.00,VWS V13.01,2013-01-16 22:26:00,
2013-01-16 15:31:00,41.2,15.0,25.72,North,0,0.0,0.0,34,0.00,,---,0.00,VWS V13.01,2013-01-16 22:31:00,
2013-01-16 15:36:00,41.0,14.8,25.72,North,0,0.0,0.0,34,0.00,,---,0.00,VWS V13.01,2013-01-16 22:36:00,
2013-01-16 15:41:00,40.8,15.3,25.72,North,0,0.0,0.0,35,0.00,,---,0.00,VWS V13.01,2013-01-16 22:41:00,
2013-01-16 15:46:00,40.5,15.0,25.72,North,0,0.0,0.0,35,0.00,,---,0.00,VWS V13.01,2013-01-16 22:46:00,
2013-01-16 15:51:00,40.3,14.8,25.72,North,0,0.0,0.0,35,0.00,,---,0.00,VWS V13.01,2013-01-16 22:51:00,
2013-01-16 15:56:00,39.9,14.5,25.72,North,0,0.0,0.0,35,0.00,,---,0.00,VWS V13.01,2013-01-16 22:56:00,
2013-01-16 16:01:00,39.6,14.2,25.72,North,0,0.0,0.0,35,0.00,,---,0.00,VWS V13.01,2013-01-16 23:01:00,
2013-01-16 16:06:00,39.4,14.0,25.72,North,0,0.0,0.0,35,0.00,,---,0.00,VWS V13.01,2013-01-16 23:06:00,
2013-01-16 16:11:00,39.2,14.5,25.72,North,0,0.0,0.0,36,0.00,,---,0.00,VWS V13.01,2013-01-16 23:11:00,
2013-01-16 16:16:00,38.8,14.2,25.72,North,0,0.0,0.0,36,0.00,,---,0.00,VWS V13.01,2013-01-16 23:16:00,
2013-01-16 16:21:00,38.7,14.6,25.72,North,0,0.0,0.0,37,0.00,,---,0.00,VWS V13.01,2013-01-16 23:21:00,
2013-01-16 16:26:00,38.5,14.5,25.72,North,0,0.0,0.0,37,0.00,,---,0.00,VWS V13.01,2013-01-16 23:26:00,
2013-01-16 16:31:00,38.7,14.6,25.72,North,0,0.0,0.0,37,0.00,,---,0.00,VWS V13.01,2013-01-16 23:31:00,
2013-01-16 16:36:00,38.7,15.3,25.72,North,0,0.0,0.0,38,0.00,,---,0.00,VWS V13.01,2013-01-16 23:36:00,
2013-01-16 16:41:00,38.7,15.3,25.72,North,0,0.0,0.0,38,0.00,,---,0.00,VWS V13.01,2013-01-16 23:41:00,
2013-01-16 16:46:00,38.8,15.4,25.72,North,0,0.0,0.0,38,0.00,,---,0.00,VWS V13.01,2013-01-16 23:46:00,
2013-01-16 16:51:00,38.8,15.4,25.72,North,0,0.0,0.0,38,0.00,,---,0.00,VWS V13.01,2013-01-16 23:51:00,
2013-01-16 16:56:00,38.5,15.1,25.72,North,0,0.0,0.0,38,0.00,,---,0.00,VWS V13.01,2013-01-16 23:56:00,
2013-01-16 17:01:00,38.1,15.4,25.72,North,0,0.0,0.0,39,0.00,,---,0.00,VWS V13.01,2013-01-17 00:01:00,
2013-01-16 17:06:00,37.2,15.1,25.75,North,0,0.0,0.0,40,0.00,,---,0.00,VWS V13.01,2013-01-17 00:06:00,
2013-01-16 17:11:00,36.7,14.6,25.75,North,0,0.0,0.0,40,0.00,,---,0.00,VWS V13.01,2013-01-17 00:11:00,
2013-01-16 17:16:00,36.3,14.9,25.75,North,0,0.0,0.0,41,0.00,,---,0.00,VWS V13.01,2013-01-17 00:16:00,
2013-01-16 17:21:00,36.0,14.6,25.75,North,0,0.0,0.0,41,0.00,,---,0.00,VWS V13.01,2013-01-17 00:21:00,
2013-01-16 17:26:00,35.8,14.4,25.75,North,0,0.0,0.0,41,0.00,,---,0.00,VWS V13.01,2013-01-17 00:26:00,
2013-01-16 17:31:00,35.4,14.6,25.75,North,0,0.0,0.0,42,0.00,,---,0.00,VWS V13.01,2013-01-17 00:31:00,
2013-01-16 17:36:00,34.5,14.9,25.75,North,0,0.0,0.0,44,0.00,,---,0.00,VWS V13.01,2013-01-17 00:36:00,
2013-01-16 17:41:00,33.8,14.7,25.75,North,0,0.0,0.0,45,0.00,,---,0.00,VWS V13.01,2013-01-17 00:41:00,
2013-01-16 17:46:00,34.2,15.1,25.75,North,0,0.0,0.0,45,0.00,,---,0.00,VWS V13.01,2013-01-17 00:46:00,
2013-01-16 17:51:00,35.1,14.8,25.75,North,0,0.0,0.0,43,0.00,,---,0.00,VWS V13.01,2013-01-17 00:51:00,
2013-01-16 17:56:00,34.3,15.7,25.75,North,0,0.0,0.0,46,0.00,,---,0.00,VWS V13.01,2013-01-17 00:56:00,
2013-01-16 18:01:00,32.9,16.3,25.75,North,0,0.0,0.0,50,0.00,,---,0.00,VWS V13.01,2013-01-17 01:01:00,
2013-01-16 18:06:00,32.5,16.0,25.78,North,0,0.0,0.0,50,0.00,,---,0.00,VWS V13.01,2013-01-17 01:06:00,
2013-01-16 18:11:00,32.9,15.9,25.78,North,0,0.0,0.0,49,0.00,,---,0.00,VWS V13.01,2013-01-17 01:11:00,
2013-01-16 18:16:00,32.4,16.3,25.78,North,0,0.0,0.0,51,0.00,,---,0.00,VWS V13.01,2013-01-17 01:16:00,
2013-01-16 18:21:00,31.5,15.9,25.78,North,0,0.0,0.0,52,0.00,,---,0.00,VWS V13.01,2013-01-17 01:21:00,
2013-01-16 18:26:00,31.1,16.0,25.78,North,0,0.0,0.0,53,0.00,,---,0.00,VWS V13.01,2013-01-17 01:26:00,
2013-01-16 18:31:00,31.1,16.0,25.78,North,0,0.0,0.0,53,0.00,,---,0.00,VWS V13.01,2013-01-17 01:31:00,
2013-01-16 18:36:00,30.4,15.3,25.78,North,0,0.0,0.0,53,0.00,,---,0.00,VWS V13.01,2013-01-17 01:36:00,
2013-01-16 18:41:00,29.7,15.5,25.78,North,0,0.0,0.0,55,0.00,,---,0.00,VWS V13.01,2013-01-17 01:41:00,
2013-01-16 18:46:00,29.1,15.4,25.78,North,0,0.0,0.0,56,0.00,,---,0.00,VWS V13.01,2013-01-17 01:46:00,
2013-01-16 18:51:00,28.9,16.4,25.78,North,0,0.0,0.0,59,0.00,,---,0.00,VWS V13.01,2013-01-17 01:51:00,
2013-01-16 18:56:00,29.1,16.2,25.78,North,0,0.0,0.0,58,0.00,,---,0.00,VWS V13.01,2013-01-17 01:56:00,
2013-01-16 19:01:00,29.7,16.3,25.78,North,0,0.0,0.0,57,0.00,,---,0.00,VWS V13.01,2013-01-17 02:01:00,
2013-01-16 19:06:00,30.4,16.2,25.78,North,0,0.0,0.0,55,0.00,,---,0.00,VWS V13.01,2013-01-17 02:06:00,
2013-01-16 19:11:00,30.4,15.7,25.78,North,0,0.0,0.0,54,0.00,,---,0.00,VWS V13.01,2013-01-17 02:11:00,
2013-01-16 19:16:00,30.2,16.0,25.78,North,0,0.0,0.0,55,0.00,,---,0.00,VWS V13.01,2013-01-17 02:16:00,
2013-01-16 19:21:00,29.8,15.7,25.78,North,0,0.0,0.0,55,0.00,,---,0.00,VWS V13.01,2013-01-17 02:21:00,
2013-01-16 19:26:00,29.3,15.6,25.78,North,0,0.0,0.0,56,0.00,,---,0.00,VWS V13.01,2013-01-17 02:26:00,
2013-01-16 19:31:00,29.1,15.8,25.78,North,0,0.0,0.0,57,0.00,,---,0.00,VWS V13.01,2013-01-17 02:31:00,
2013-01-16 19:36:00,28.6,15.7,25.78,North,0,0.0,0.0,58,0.00,,---,0.00,VWS V13.01,2013-01-17 02:36:00,
2013-01-16 19:41:00,28.2,15.8,25.78,North,0,0.0,0.0,59,0.00,,---,0.00,VWS V13.01,2013-01-17 02:41:00,
2013-01-16 19:46:00,28.8,16.2,25.78,North,0,0.0,0.0,59,0.00,,---,0.00,VWS V13.01,2013-01-17 02:46:00,
2013-01-16 19:51:00,29.7,15.9,25.78,North,0,0.0,0.0,56,0.00,,---,0.00,VWS V13.01,2013-01-17 02:51:00,
2013-01-16 19:56:00,30.4,15.7,25.78,North,0,0.0,0.0,54,0.00,,---,0.00,VWS V13.01,2013-01-17 02:56:00,
2013-01-16 20:01:00,30.2,15.6,25.78,North,0,0.0,0.0,54,0.00,,---,0.00,VWS V13.01,2013-01-17 03:01:00,
2013-01-16 20:06:00,30.2,15.6,25.78,North,0,0.0,0.0,54,0.00,,---,0.00,VWS V13.01,2013-01-17 03:06:00,
2013-01-16 20:11:00,30.2,15.6,25.78,North,0,0.0,0.0,54,0.00,,---,0.00,VWS V13.01,2013-01-17 03:11:00,
2013-01-16 20:16:00,30.6,15.5,25.78,North,0,0.0,0.0,53,0.00,,---,0.00,VWS V13.01,2013-01-17 03:16:00,
2013-01-16 20:21:00,30.6,15.0,25.78,North,0,0.0,0.0,52,0.00,,---,0.00,VWS V13.01,2013-01-17 03:21:00,
2013-01-16 20:26:00,30.4,15.3,25.78,North,0,0.0,0.0,53,0.00,,---,0.00,VWS V13.01,2013-01-17 03:26:00,
2013-01-16 20:31:00,30.6,15.5,25.78,North,0,0.0,0.0,53,0.00,,---,0.00,VWS V13.01,2013-01-17 03:31:00,
2013-01-16 20:36:00,30.7,15.2,25.78,North,0,0.0,0.0,52,0.00,,---,0.00,VWS V13.01,2013-01-17 03:36:00,
2013-01-16 20:41:00,30.9,15.4,25.78,North,0,0.0,0.0,52,0.00,,---,0.00,VWS V13.01,2013-01-17 03:41:00,
2013-01-16 20:46:00,30.9,15.4,25.78,North,0,0.0,0.0,52,0.00,,---,0.00,VWS V13.01,2013-01-17 03:46:00,
2013-01-16 20:51:00,30.6,15.0,25.81,North,0,0.0,0.0,52,0.00,,---,0.00,VWS V13.01,2013-01-17 03:51:00,
2013-01-16 20:56:00,30.6,15.0,25.81,North,0,0.0,0.0,52,0.00,,---,0.00,VWS V13.01,2013-01-17 03:56:00,
2013-01-16 21:01:00,30.9,15.4,25.81,North,0,0.0,0.0,52,0.00,,---,0.00,VWS V13.01,2013-01-17 04:01:00,
2013-01-16 21:06:00,30.6,15.0,25.81,North,0,0.0,0.0,52,0.00,,---,0.00,VWS V13.01,2013-01-17 04:06:00,
2013-01-16 21:11:00,29.8,14.8,25.81,North,0,0.0,0.0,53,0.00,,---,0.00,VWS V13.01,2013-01-17 04:11:00,
2013-01-16 21:16:00,29.8,15.2,25.81,North,0,0.0,0.0,54,0.00,,---,0.00,VWS V13.01,2013-01-17 04:16:00,
2013-01-16 21:21:00,30.2,15.1,25.81,North,0,0.0,0.0,53,0.00,,---,0.00,VWS V13.01,2013-01-17 04:21:00,
2013-01-16 21:26:00,30.4,14.9,25.81,North,0,0.0,0.0,52,0.00,,---,0.00,VWS V13.01,2013-01-17 04:26:00,
2013-01-16 21:31:00,30.2,14.7,25.81,North,0,0.0,0.0,52,0.00,,---,0.00,VWS V13.01,2013-01-17 04:31:00,
2013-01-16 21:36:00,30.4,14.9,25.81,North,0,0.0,0.0,52,0.00,,---,0.00,VWS V13.01,2013-01-17 04:36:00,
2013-01-16 21:41:00,30.4,14.9,25.81,North,0,0.0,0.0,52,0.00,,---,0.00,VWS V13.01,2013-01-17 04:41:00,
2013-01-16 21:46:00,30.4,14.9,25.81,North,0,0.0,0.0,52,0.00,,---,0.00,VWS V13.01,2013-01-17 04:46:00,
2013-01-16 21:51:00,30.2,14.7,25.81,North,0,0.0,0.0,52,0.00,,---,0.00,VWS V13.01,2013-01-17 04:51:00,
2013-01-16 21:56:00,30.2,14.7,25.81,North,0,0.0,0.0,52,0.00,,---,0.00,VWS V13.01,2013-01-17 04:56:00,
2013-01-16 22:01:00,29.8,14.8,25.81,North,0,0.0,0.0,53,0.00,,---,0.00,VWS V13.01,2013-01-17 05:01:00,
2013-01-16 22:02:00,29.7,14.6,25.81,North,0,0.0,0.0,53,0.00,,---,0.00,VWS V13.01,2013-01-17 05:02:00,
2013-01-16 22:07:00,30.2,15.1,25.81,North,0,0.0,0.0,53,0.00,,---,0.00,VWS V13.01,2013-01-17 05:07:00,
2013-01-16 22:12:00,30.2,14.7,25.81,North,0,0.0,0.0,52,0.00,,---,0.00,VWS V13.01,2013-01-17 05:12:00,
2013-01-16 22:17:00,30.0,15.0,25.81,North,0,0.0,0.0,53,0.00,,---,0.00,VWS V13.01,2013-01-17 05:17:00,
2013-01-16 22:22:00,29.7,14.6,25.81,North,0,0.0,0.0,53,0.00,,---,0.00,VWS V13.01,2013-01-17 05:22:00,
2013-01-16 22:27:00,28.9,14.4,25.81,North,0,0.0,0.0,54,0.00,,---,0.00,VWS V13.01,2013-01-17 05:27:00,
2013-01-16 22:32:00,28.0,14.4,25.81,North,0,0.0,0.0,56,0.00,,---,0.00,VWS V13.01,2013-01-17 05:32:00,
2013-01-16 22:37:00,27.9,14.6,25.81,North,0,0.0,0.0,57,0.00,,---,0.00,VWS V13.01,2013-01-17 05:37:00,
2013-01-16 22:42:00,27.9,14.6,25.81,North,0,0.0,0.0,57,0.00,,---,0.00,VWS V13.01,2013-01-17 05:42:00,
2013-01-16 22:47:00,27.3,14.5,25.81,North,0,0.0,0.0,58,0.00,,---,0.00,VWS V13.01,2013-01-17 05:47:00,
2013-01-16 22:52:00,26.6,14.2,25.81,North,0,0.0,0.0,59,0.00,,---,0.00,VWS V13.01,2013-01-17 05:52:00,
2013-01-16 22:57:00,25.9,13.9,25.81,North,0,0.0,0.0,60,0.00,,---,0.00,VWS V13.01,2013-01-17 05:57:00,
2013-01-16 23:02:00,25.5,14.3,25.81,North,0,0.0,0.0,62,0.00,,---,0.00,VWS V13.01,2013-01-17 06:02:00,
2013-01-16 23:07:00,24.8,14.0,25.81,North,0,0.0,0.0,63,0.00,,---,0.00,VWS V13.01,2013-01-17 06:07:00,
2013-01-16 23:12:00,24.3,13.5,25.81,North,0,0.0,0.0,63,0.00,,---,0.00,VWS V13.01,2013-01-17 06:12:00,
2013-01-16 23:17:00,23.9,13.9,25.81,North,0,0.0,0.0,65,0.00,,---,0.00,VWS V13.01,2013-01-17 06:17:00,
2013-01-16 23:22:00,23.5,14.2,25.84,North,0,0.0,0.0,67,0.00,,---,0.00,VWS V13.01,2013-01-17 06:22:00,
2013-01-16 23:27:00,24.3,15.9,25.84,North,0,0.0,0.0,70,0.00,,---,0.00,VWS V13.01,2013-01-17 06:27:00,
2013-01-16 23:32:00,24.6,16.2,25.84,North,0,0.0,0.0,70,0.00,,---,0.00,VWS V13.01,2013-01-17 06:32:00,
2013-01-16 23:37:00,24.8,15.8,25.84,North,0,0.0,0.0,68,0.00,,---,0.00,VWS V13.01,2013-01-17 06:37:00,
2013-01-16 23:42:00,24.4,15.1,25.84,North,0,0.0,0.0,67,0.00,,---,0.00,VWS V13.01,2013-01-17 06:42:00,
2013-01-16 23:47:00,23.7,14.4,25.84,North,0,0.0,0.0,67,0.00,,---,0.00,VWS V13.01,2013-01-17 06:47:00,
2013-01-16 23:52:00,23.2,13.5,25.84,North,0,0.0,0.0,66,0.00,,---,0.00,VWS V13.01,2013-01-17 06:52:00,
2013-01-16 23:57:00,22.6,13.4,25.84,North,0,0.0,0.0,67,0.00,,---,0.00,VWS V13.01,2013-01-17 06:57:00,